Location: Marne
(34.0056°N, 117.9064°W)
Time: 05:31:09
(UTC+00:00)

CSL-04 Rocket - Pass Details

Date: 18 January 2020
Orbit: 806 x 860 km, 99.0° (Epoch: 17 February)

Event Time Altitude Azimuth Distance (km) Brightness Sun altitude
Rises 01:47:11 0° 140° (SE) 3,366 6.6 -8.5°
Reaches altitude 10° 01:49:44 10° 130° (SE) 2,445 5.8 -9.0°
Maximum altitude 01:54:29 32° 69° (ENE) 1,418 4.3 -10.0°
Drops below altitude 10° 01:59:17 10° 8° (N) 2,485 5.9 -10.9°
Sets 02:01:53 0° 359° (N) 3,430 6.7 -11.4°
